Evansville, IN

4:56 AM CDT on May 21, 2018 (GMT -0500)
Evansville Regional

Weather History for KEVV - April, 2014

Change the Weather History Date:

Sunday, April 20, 2014

  Actual Average Record
Temperature  
Mean Temperature 63 °F 58 °F  
Max Temperature 79 °F 69 °F 88 °F (1971)
Min Temperature 47 °F 46 °F 27 °F (1904)
Degree Days  
Heating Degree Days 2 8  
Month to date heating degree days 183 222  
Since 1 July heating degree days 4858 4388  
Cooling Degree Days 0 1  
Month to date cooling degree days 5 12  
Year to date cooling degree days 5 15  
Growing Degree Days 12 (Base 50)    
Moisture  
Dew Point 40 °F    
Average Humidity 51    
Maximum Humidity 80    
Minimum Humidity 21    
Precipitation  
Precipitation 0.00 in 0.15 in 3.65 in (1995)
Month to date precipitation 8.03 2.78  
Year to date precipitation 14.83 13.29  
Snow  
Snow 0.00 in 0.00 in 0.00 in (2002)
Month to date snowfall 0.0 0.1  
Since 1 July snowfall 12.6 11.8  
Snow Depth 0.00 in    
Sea Level Pressure  
Sea Level Pressure 30.18 in    
Wind  
Wind Speed 2 mph (NNE)    
Max Wind Speed 9 mph    
Max Gust Speed 11 mph    
Visibility 10 miles    
Events      
T = Trace of Precipitation, MM = Missing Value Source: NWS Daily Summary

Daily Weather History Graph

Daily Weather History Graph

Search for Another Location

Airport or City:

Astronomy

Apr. 20, 2014 Rise Set
Actual Time 6:07 AM CDT 7:30 PM CDT
Civil Twilight 5:40 AM CDT 7:58 PM CDT
Nautical Twilight 5:07 AM CDT 8:31 PM CDT
Astronomical Twilight 4:32 AM CDT 9:06 PM CDT
Moon 12:08 AM CDT (4/20) 10:29 AM CDT (4/20)
Length of Visible Light 14h 18m
Length of Day
13h 23m
Waning Gibbous, 68% of the Moon is Illuminated
Apr 20
Waning Gibbous
Apr 22
Last Quarter
Apr 29
New
May 6
First Quarter
May 14
Full

Hourly Weather History & Observations

Time (CDT) Temp. Dew Point Humidity Pressure Visibility Wind Dir Wind Speed Gust Speed Precip Events Conditions
12:54 AM 57.0 °F 41.0 °F 55% 30.21 in 10.0 mi NNE 4.6 mph - N/A   Clear
1:54 AM 57.0 °F 39.0 °F 51% 30.20 in 10.0 mi NNE 4.6 mph - N/A   Clear
2:54 AM 54.0 °F 39.9 °F 59% 30.20 in 10.0 mi NNE 4.6 mph - N/A   Clear
3:54 AM 52.0 °F 41.0 °F 66% 30.21 in 10.0 mi NE 3.5 mph - N/A   Clear
4:54 AM 51.1 °F 39.0 °F 63% 30.21 in 10.0 mi North 3.5 mph - N/A   Clear
5:54 AM 48.0 °F 41.0 °F 77% 30.22 in 10.0 mi Calm Calm - N/A   Clear
6:54 AM 48.9 °F 42.1 °F 77% 30.24 in 10.0 mi Calm Calm - N/A   Clear
7:54 AM 57.0 °F 41.0 °F 55% 30.25 in 10.0 mi Calm Calm - N/A   Clear
8:54 AM 61.0 °F 42.1 °F 50% 30.24 in 10.0 mi Calm Calm - N/A   Clear
9:54 AM 64.9 °F 41.0 °F 42% 30.24 in 10.0 mi SE 5.8 mph - N/A   Clear
10:54 AM 69.1 °F 39.9 °F 35% 30.23 in 10.0 mi SSE 5.8 mph - N/A   Clear
11:54 AM 72.0 °F 36.0 °F 27% 30.22 in 10.0 mi Calm Calm - N/A   Clear
12:54 PM 75.0 °F 37.0 °F 25% 30.19 in 10.0 mi West 4.6 mph - N/A   Clear
1:54 PM 75.0 °F 37.9 °F 26% 30.18 in 10.0 mi Calm Calm - N/A   Clear
2:54 PM 75.0 °F 36.0 °F 24% 30.15 in 10.0 mi Variable 3.5 mph - N/A   Clear
3:54 PM 75.9 °F 35.1 °F 23% 30.14 in 10.0 mi Variable 3.5 mph - N/A   Clear
4:54 PM 79.0 °F 36.0 °F 21% 30.12 in 10.0 mi NE 4.6 mph - N/A   Clear
5:54 PM 75.2 °F 33.8 °F 22% 30.12 in 10.0 mi West 3.5 mph - N/A   Clear
6:54 PM 75.0 °F 35.1 °F 23% 30.10 in 10.0 mi Calm Calm - N/A   Clear
7:54 PM 66.9 °F 42.1 °F 40% 30.11 in 10.0 mi North 4.6 mph - N/A   Clear
8:54 PM 64.0 °F 46.9 °F 54% 30.11 in 10.0 mi Calm Calm - N/A   Clear
9:54 PM 61.0 °F 46.0 °F 58% 30.11 in 10.0 mi Calm Calm - N/A   Clear
10:54 PM 59.0 °F 48.0 °F 67% 30.10 in 10.0 mi Calm Calm - N/A   Clear
11:54 PM 57.0 °F 48.0 °F 72% 30.09 in 10.0 mi Calm Calm - N/A   Clear